| time (UTC) | temp F | wind direction | speed knots | gust knots | rain 1hr in | rain 24hr in | rain mn in | humidity % | barometer mb |
| 20260505083542 | 63 | 263 | 2.6 | 11.3 | 0.00 | 0.00 | 0.00 | 78 | 1005.8 |
| 20260505083053 | 63 | 232 | 4.3 | 11.3 | 0.00 | 0.00 | 0.00 | 77 | 1005.9 |
| 20260505082542 | 63 | 252 | 2.6 | 6.1 | 0.00 | 0.00 | 0.00 | 76 | 1005.9 |
| 20260505082042 | 63 | 226 | 0.9 | 3.5 | 0.00 | 0.00 | 0.00 | 76 | 1006.0 |
| 20260505081553 | 63 | 239 | 0.9 | 5.2 | 0.00 | 0.00 | 0.00 | 76 | 1006.0 |
| 20260505081043 | 63 | 191 | 1.7 | 5.2 | 0.00 | 0.00 | 0.00 | 75 | 1005.7 |
| 20260505080545 | 63 | 213 | 0.9 | 3.5 | 0.00 | 0.00 | 0.00 | 75 | 1005.6 |
| 20260505080100 | 63 | 173 | 0.9 | 5.2 | 0.00 | 0.00 | 0.00 | 74 | 1005.5 |
| 20260505075547 | 63 | 208 | 1.7 | 7.0 | 0.00 | 0.00 | 0.00 | 74 | 1005.6 |
| 20260505075042 | 63 | 133 | 0.9 | 7.0 | 0.00 | 0.00 | 0.00 | 74 | 1005.7 |
| 20260505074549 | 63 | 222 | 0.9 | 3.5 | 0.00 | 0.00 | 0.00 | 74 | 1005.7 |
| 20260505074043 | 63 | 210 | 0.0 | 3.5 | 0.00 | 0.00 | 0.00 | 74 | 1005.6 |
| 20260505073543 | 63 | 0 | 0.0 | 3.5 | 0.00 | 0.00 | 0.00 | 74 | 1005.5 |
| 20260505073055 | 63 | 207 | 0.0 | 2.6 | 0.00 | 0.00 | 0.00 | 74 | 1005.6 |
| 20260505072543 | 63 | 204 | 0.0 | 4.3 | 0.00 | 0.00 | 0.00 | 74 | 1005.6 |
| 20260505072130 | 64 | 0 | 0.9 | 7.0 | 0.00 | 0.00 | 0.00 | 73 | 1005.5 |
| 20260505071554 | 64 | 193 | 0.9 | 7.0 | 0.00 | 0.00 | 0.00 | 74 | 1005.7 |
| 20260505071043 | 63 | 187 | 0.9 | 5.2 | 0.00 | 0.00 | 0.00 | 73 | 1005.6 |
| 20260505070543 | 63 | 178 | 1.7 | 4.3 | 0.00 | 0.00 | 0.00 | 74 | 1005.6 |
| 20260505070055 | 63 | 153 | 0.9 | 4.3 | 0.00 | 0.00 | 0.00 | 74 | 1005.6 |
| 20260505065543 | 63 | 191 | 1.7 | 6.1 | 0.00 | 0.00 | 0.00 | 74 | 1005.6 |
| 20260505065043 | 63 | 155 | 0.9 | 7.8 | 0.00 | 0.00 | 0.00 | 74 | 1005.6 |
| 20260505064554 | 63 | 159 | 0.9 | 7.8 | 0.00 | 0.00 | 0.00 | 74 | 1005.7 |
| 20260505064043 | 63 | 169 | 2.6 | 7.0 | 0.00 | 0.00 | 0.00 | 74 | 1005.8 |
| 20260505063542 | 63 | 207 | 2.6 | 6.1 | 0.00 | 0.00 | 0.00 | 74 | 1005.8 |
| 20260505063112 | 63 | 181 | 2.6 | 6.1 | 0.00 | 0.00 | 0.00 | 74 | 1005.8 |
| 20260505062546 | 63 | 171 | 1.7 | 5.2 | 0.00 | 0.00 | 0.00 | 74 | 1005.7 |
| 20260505062041 | 63 | 197 | 0.9 | 6.1 | 0.00 | 0.00 | 0.00 | 74 | 1005.8 |
| 20260505061556 | 63 | 169 | 1.7 | 6.1 | 0.00 | 0.00 | 0.00 | 74 | 1005.7 |
| 20260505061047 | 63 | 169 | 0.9 | 9.6 | 0.00 | 0.00 | 0.00 | 73 | 1005.7 |
| 20260505060543 | 63 | 230 | 2.6 | 9.6 | 0.00 | 0.00 | 0.00 | 73 | 1005.7 |
| 20260505060103 | 63 | 178 | 1.7 | 7.0 | 0.00 | 0.00 | 0.00 | 73 | 1005.7 |
| 20260505055543 | 64 | 188 | 0.9 | 6.1 | 0.00 | 0.00 | 0.00 | 73 | 1005.7 |
| 20260505055043 | 64 | 185 | 1.7 | 7.0 | 0.00 | 0.00 | 0.00 | 73 | 1005.9 |
| 20260505054609 | 64 | 191 | 2.6 | 7.0 | 0.00 | 0.00 | 0.00 | 72 | 1005.8 |
| 20260505054042 | 64 | 198 | 1.7 | 6.1 | 0.00 | 0.00 | 0.00 | 72 | 1006.0 |
| 20260505053542 | 64 | 165 | 2.6 | 8.7 | 0.00 | 0.00 | 0.00 | 72 | 1005.9 |
| 20260505053100 | 64 | 216 | 2.6 | 8.7 | 0.00 | 0.00 | 0.00 | 72 | 1006.0 |
| 20260505052542 | 64 | 182 | 2.6 | 7.8 | 0.00 | 0.00 | 0.00 | 72 | 1006.1 |
| 20260505052046 | 64 | 191 | 2.6 | 8.7 | 0.00 | 0.00 | 0.00 | 72 | 1006.1 |
| 20260505051551 | 64 | 190 | 2.6 | 8.7 | 0.00 | 0.00 | 0.00 | 72 | 1006.0 |
| 20260505051043 | 64 | 204 | 1.7 | 8.7 | 0.00 | 0.00 | 0.00 | 72 | 1005.7 |
| 20260505050543 | 64 | 175 | 0.9 | 7.8 | 0.00 | 0.00 | 0.00 | 72 | 1005.8 |
| 20260505041043 | 64 | 193 | 1.7 | 6.1 | 0.00 | 0.00 | 0.00 | 73 | 1006.3 |
| 20260505040543 | 64 | 155 | 1.7 | 5.2 | 0.00 | 0.00 | 0.00 | 73 | 1006.5 |
| 20260505040056 | 64 | 148 | 0.9 | 6.1 | 0.00 | 0.00 | 0.00 | 72 | 1006.5 |
| 20260505035542 | 64 | 202 | 1.7 | 6.1 | 0.00 | 0.00 | 0.00 | 72 | 1006.6 |
| 20260505035044 | 64 | 187 | 0.9 | 4.3 | 0.00 | 0.00 | 0.00 | 72 | 1006.6 |
| 20260505034559 | 64 | 159 | 0.9 | 5.2 | 0.00 | 0.00 | 0.00 | 71 | 1006.8 |
| 20260505034047 | 64 | 182 | 2.6 | 5.2 | 0.00 | 0.00 | 0.00 | 71 | 1006.8 |
| 20260505033543 | 64 | 156 | 1.7 | 4.3 | 0.00 | 0.00 | 0.00 | 71 | 1006.9 |
| 20260505033058 | 64 | 165 | 0.9 | 6.1 | 0.00 | 0.00 | 0.00 | 71 | 1006.9 |
| 20260505032542 | 64 | 148 | 1.7 | 6.1 | 0.00 | 0.00 | 0.00 | 71 | 1006.9 |
| 20260505032046 | 64 | 163 | 0.9 | 3.5 | 0.00 | 0.00 | 0.00 | 71 | 1006.9 |
| 20260505031603 | 64 | 162 | 1.7 | 3.5 | 0.00 | 0.00 | 0.00 | 71 | 1006.9 |
| 20260505031043 | 65 | 198 | 1.7 | 4.3 | 0.00 | 0.00 | 0.00 | 70 | 1006.9 |
| 20260505030543 | 65 | 194 | 0.9 | 4.3 | 0.00 | 0.00 | 0.00 | 69 | 1006.9 |
| 20260505030113 | 65 | 173 | 0.9 | 4.3 | 0.00 | 0.00 | 0.00 | 69 | 1007.0 |
| 20260505025544 | 66 | 188 | 0.9 | 4.3 | 0.00 | 0.00 | 0.00 | 68 | 1007.0 |
| 20260505025044 | 66 | 184 | 0.0 | 4.3 | 0.00 | 0.00 | 0.00 | 68 | 1007.1 |
| 20260505024559 | 66 | 0 | 0.9 | 3.5 | 0.00 | 0.00 | 0.00 | 67 | 1006.9 |
| 20260505024043 | 66 | 165 | 0.9 | 3.5 | 0.00 | 0.00 | 0.00 | 68 | 1006.8 |
| 20260505023543 | 66 | 164 | 0.9 | 5.2 | 0.00 | 0.00 | 0.00 | 67 | 1006.6 |
| 20260505023051 | 66 | 169 | 0.9 | 5.2 | 0.00 | 0.00 | 0.00 | 67 | 1006.5 |
| 20260505022543 | 66 | 175 | 0.9 | 5.2 | 0.00 | 0.00 | 0.00 | 67 | 1006.4 |
| 20260505022043 | 67 | 188 | 0.9 | 3.5 | 0.00 | 0.00 | 0.00 | 66 | 1006.3 |
| 20260505021558 | 67 | 162 | 0.9 | 3.5 | 0.00 | 0.00 | 0.00 | 65 | 1006.3 |
| 20260505021043 | 67 | 211 | 0.9 | 3.5 | 0.00 | 0.00 | 0.00 | 65 | 1006.3 |
| 20260505020543 | 67 | 0 | 0.9 | 5.2 | 0.00 | 0.00 | 0.00 | 65 | 1006.2 |
| 20260505020054 | 68 | 209 | 0.9 | 5.2 | 0.00 | 0.00 | 0.00 | 64 | 1006.1 |
| 20260505015545 | 68 | 148 | 1.7 | 5.2 | 0.00 | 0.00 | 0.00 | 63 | 1006.0 |
| 20260505015043 | 68 | 148 | 0.9 | 5.2 | 0.00 | 0.00 | 0.00 | 63 | 1006.0 |
| 20260505014607 | 68 | 207 | 0.9 | 5.2 | 0.00 | 0.00 | 0.00 | 62 | 1005.8 |
| 20260505014042 | 69 | 153 | 0.9 | 5.2 | 0.00 | 0.00 | 0.00 | 62 | 1005.8 |
| 20260505013542 | 69 | 193 | 1.7 | 5.2 | 0.00 | 0.00 | 0.00 | 61 | 1005.7 |
| 20260505013053 | 69 | 207 | 1.7 | 5.2 | 0.00 | 0.00 | 0.00 | 61 | 1005.5 |
| 20260505012542 | 69 | 194 | 0.9 | 6.1 | 0.00 | 0.00 | 0.00 | 61 | 1005.5 |
| 20260505012043 | 69 | 207 | 0.9 | 6.1 | 0.00 | 0.00 | 0.00 | 61 | 1005.5 |
| 20260505011604 | 69 | 188 | 0.9 | 5.2 | 0.00 | 0.00 | 0.00 | 61 | 1005.6 |
| 20260505011042 | 69 | 184 | 0.9 | 4.3 | 0.00 | 0.00 | 0.00 | 61 | 1005.6 |
| 20260505010544 | 69 | 190 | 0.9 | 3.5 | 0.00 | 0.00 | 0.00 | 60 | 1005.5 |
| 20260505010053 | 70 | 182 | 0.9 | 3.5 | 0.00 | 0.00 | 0.00 | 59 | 1005.3 |
| 20260505005543 | 70 | 170 | 0.9 | 2.6 | 0.00 | 0.00 | 0.00 | 57 | 1005.3 |
| 20260505005045 | 71 | 188 | 0.9 | 4.3 | 0.00 | 0.00 | 0.00 | 56 | 1005.3 |
| 20260505004553 | 71 | 203 | 0.9 | 4.3 | 0.00 | 0.00 | 0.00 | 55 | 1005.2 |
| 20260505004042 | 72 | 200 | 0.9 | 5.2 | 0.00 | 0.00 | 0.00 | 54 | 1005.1 |
| 20260505003543 | 72 | 199 | 1.7 | 5.2 | 0.00 | 0.00 | 0.00 | 53 | 1005.1 |
| 20260505003051 | 73 | 205 | 1.7 | 7.0 | 0.00 | 0.00 | 0.00 | 52 | 1005.1 |
| 20260505002542 | 73 | 189 | 1.7 | 7.8 | 0.00 | 0.00 | 0.00 | 51 | 1005.1 |
| 20260505002043 | 73 | 213 | 3.5 | 8.7 | 0.00 | 0.00 | 0.00 | 51 | 1005.0 |
| 20260505001551 | 74 | 209 | 3.5 | 8.7 | 0.00 | 0.00 | 0.00 | 51 | 1005.0 |
| 20260505001042 | 74 | 173 | 2.6 | 11.3 | 0.00 | 0.00 | 0.00 | 50 | 1005.1 |
| 20260505000544 | 74 | 157 | 3.5 | 11.3 | 0.00 | 0.00 | 0.00 | 50 | 1005.1 |
| 20260505000107 | 74 | 194 | 2.6 | 10.4 | 0.00 | 0.00 | 0.00 | 50 | 1005.1 |
| 20260504235543 | 75 | 211 | 3.5 | 11.3 | 0.00 | 0.00 | 0.00 | 50 | 1005.1 |
| 20260504235042 | 76 | 148 | 5.2 | 11.3 | 0.00 | 0.00 | 0.00 | 49 | 1005.2 |
| 20260504234551 | 76 | 178 | 2.6 | 10.4 | 0.00 | 0.00 | 0.00 | 49 | 1005.2 |
| 20260504234043 | 76 | 219 | 3.5 | 10.4 | 0.00 | 0.00 | 0.00 | 50 | 1005.1 |
| 20260504233543 | 76 | 143 | 4.3 | 11.3 | 0.00 | 0.00 | 0.00 | 49 | 1005.1 |
| 20260504233107 | 77 | 119 | 3.5 | 11.3 | 0.00 | 0.00 | 0.00 | 48 | 1005.2 |
| 20260504232543 | 77 | 213 | 2.6 | 7.8 | 0.00 | 0.00 | 0.00 | 50 | 1005.3 |
| 20260504232044 | 77 | 230 | 2.6 | 8.7 | 0.00 | 0.00 | 0.00 | 48 | 1005.2 |
| 20260504231552 | 77 | 212 | 3.5 | 8.7 | 0.00 | 0.00 | 0.00 | 48 | 1005.3 |
| 20260504231042 | 77 | 190 | 5.2 | 8.7 | 0.00 | 0.00 | 0.00 | 49 | 1005.3 |
| 20260504230543 | 78 | 204 | 2.6 | 11.3 | 0.00 | 0.00 | 0.00 | 50 | 1005.3 |
| 20260504230053 | 78 | 193 | 4.3 | 11.3 | 0.00 | 0.00 | 0.00 | 49 | 1005.3 |
| 20260504225543 | 78 | 175 | 2.6 | 8.7 | 0.00 | 0.00 | 0.00 | 48 | 1005.3 |
| 20260504225044 | 78 | 202 | 2.6 | 7.8 | 0.00 | 0.00 | 0.00 | 48 | 1005.3 |
| 20260504224604 | 78 | 246 | 3.5 | 16.5 | 0.00 | 0.00 | 0.00 | 47 | 1005.2 |
| 20260504224100 | 78 | 209 | 4.3 | 16.5 | 0.00 | 0.00 | 0.00 | 46 | 1005.4 |
| 20260504223543 | 78 | 231 | 7.0 | 13.0 | 0.00 | 0.00 | 0.00 | 46 | 1005.3 |
| 20260504223127 | 78 | 200 | 4.3 | 9.6 | 0.00 | 0.00 | 0.00 | 48 | 1005.3 |
| 20260504222543 | 78 | 198 | 3.5 | 7.8 | 0.00 | 0.00 | 0.00 | 47 | 1005.4 |
| 20260504222042 | 78 | 203 | 4.3 | 9.6 | 0.00 | 0.00 | 0.00 | 47 | 1005.5 |
| 20260504221554 | 78 | 194 | 3.5 | 10.4 | 0.00 | 0.00 | 0.00 | 48 | 1005.4 |
| 20260504221046 | 78 | 229 | 4.3 | 10.4 | 0.00 | 0.00 | 0.00 | 46 | 1005.5 |
| 20260504220543 | 78 | 225 | 3.5 | 7.8 | 0.00 | 0.00 | 0.00 | 49 | 1005.5 |
| 20260504220053 | 78 | 195 | 3.5 | 7.8 | 0.00 | 0.00 | 0.00 | 46 | 1005.4 |
| 20260504215543 | 78 | 264 | 3.5 | 10.4 | 0.00 | 0.00 | 0.00 | 50 | 1005.4 |
| 20260504215042 | 77 | 248 | 3.5 | 10.4 | 0.00 | 0.00 | 0.00 | 48 | 1005.4 |
| 20260504214553 | 77 | 231 | 4.3 | 10.4 | 0.00 | 0.00 | 0.00 | 48 | 1005.5 |
| 20260504214046 | 78 | 189 | 4.3 | 11.3 | 0.00 | 0.00 | 0.00 | 46 | 1005.5 |
| 20260504213543 | 78 | 235 | 5.2 | 12.2 | 0.00 | 0.00 | 0.00 | 46 | 1005.5 |
| 20260504213102 | 79 | 230 | 3.5 | 12.2 | 0.00 | 0.00 | 0.00 | 48 | 1005.5 |
| 20260504212543 | 79 | 162 | 4.3 | 13.0 | 0.00 | 0.00 | 0.00 | 46 | 1005.7 |
| 20260504212047 | 79 | 165 | 5.2 | 13.0 | 0.00 | 0.00 | 0.00 | 46 | 1005.7 |
| 20260504211551 | 79 | 208 | 3.5 | 12.2 | 0.00 | 0.00 | 0.00 | 48 | 1005.8 |
| 20260504211043 | 79 | 198 | 4.3 | 13.0 | 0.00 | 0.00 | 0.00 | 48 | 1005.8 |
| 20260504210548 | 79 | 228 | 7.0 | 13.0 | 0.00 | 0.00 | 0.00 | 47 | 1005.8 |
| 20260504210059 | 78 | 213 | 6.1 | 13.0 | 0.00 | 0.00 | 0.00 | 48 | 1005.8 |
| 20260504205544 | 78 | 198 | 5.2 | 13.0 | 0.00 | 0.00 | 0.00 | 47 | 1006.0 |
| 20260504205045 | 78 | 163 | 4.3 | 12.2 | 0.00 | 0.00 | 0.00 | 47 | 1006.0 |
| 20260504204554 | 78 | 238 | 4.3 | 13.0 | 0.00 | 0.00 | 0.00 | 46 | 1006.0 |
| 20260504204043 | 78 | 249 | 5.2 | 13.0 | 0.00 | 0.00 | 0.00 | 48 | 1006.2 |
| 20260504203543 | 78 | 201 | 7.0 | 13.9 | 0.00 | 0.00 | 0.00 | 44 | 1006.3 |
| 20260504203107 | 78 | 185 | 7.0 | 16.5 | 0.00 | 0.00 | 0.00 | 46 | 1006.3 |
| 20260504202543 | 78 | 144 | 7.0 | 16.5 | 0.00 | 0.00 | 0.00 | 47 | 1006.4 |
| 20260504202046 | 78 | 141 | 5.2 | 13.0 | 0.00 | 0.00 | 0.00 | 47 | 1006.5 |
| 20260504201558 | 79 | 215 | 5.2 | 12.2 | 0.00 | 0.00 | 0.00 | 49 | 1006.6 |
| 20260504201043 | 79 | 236 | 6.1 | 13.0 | 0.00 | 0.00 | 0.00 | 47 | 1006.5 |
| 20260504200543 | 78 | 205 | 5.2 | 13.0 | 0.00 | 0.00 | 0.00 | 47 | 1006.6 |
| 20260504195542 | 79 | 228 | 4.3 | 13.9 | 0.00 | 0.00 | 0.00 | 47 | 1006.7 |
| 20260504195042 | 79 | 167 | 4.3 | 20.9 | 0.00 | 0.00 | 0.00 | 49 | 1006.7 |
| 20260504194552 | 78 | 216 | 6.1 | 20.9 | 0.00 | 0.00 | 0.00 | 45 | 1006.8 |
| 20260504194045 | 79 | 173 | 6.1 | 13.0 | 0.00 | 0.00 | 0.00 | 47 | 1006.7 |
| 20260504193545 | 78 | 133 | 5.2 | 16.5 | 0.00 | 0.00 | 0.00 | 49 | 1006.8 |
| 20260504193055 | 78 | 148 | 6.1 | 16.5 | 0.00 | 0.00 | 0.00 | 48 | 1006.9 |
| 20260504192542 | 78 | 261 | 4.3 | 13.9 | 0.00 | 0.00 | 0.00 | 46 | 1006.8 |
| 20260504192044 | 78 | 204 | 6.1 | 13.9 | 0.00 | 0.00 | 0.00 | 47 | 1006.9 |
| 20260504191600 | 78 | 236 | 6.1 | 13.9 | 0.00 | 0.00 | 0.00 | 48 | 1007.0 |
| 20260504191042 | 78 | 180 | 6.1 | 13.9 | 0.00 | 0.00 | 0.00 | 48 | 1007.1 |
| 20260504190543 | 78 | 209 | 6.1 | 13.9 | 0.00 | 0.00 | 0.00 | 49 | 1007.0 |
| 20260504190052 | 78 | 226 | 5.2 | 13.0 | 0.00 | 0.00 | 0.00 | 48 | 1007.1 |
| 20260504185542 | 78 | 167 | 6.1 | 15.6 | 0.00 | 0.00 | 0.00 | 46 | 1007.1 |
| 20260504185043 | 78 | 185 | 5.2 | 15.6 | 0.00 | 0.00 | 0.00 | 49 | 1007.0 |
| 20260504184557 | 78 | 199 | 5.2 | 13.9 | 0.00 | 0.00 | 0.00 | 51 | 1007.2 |
| 20260504184043 | 78 | 168 | 6.1 | 13.9 | 0.00 | 0.00 | 0.00 | 49 | 1007.2 |
| 20260504183542 | 78 | 163 | 5.2 | 12.2 | 0.00 | 0.00 | 0.00 | 50 | 1007.1 |
| 20260504183053 | 78 | 138 | 4.3 | 11.3 | 0.00 | 0.00 | 0.00 | 53 | 1007.2 |
| 20260504182546 | 77 | 207 | 5.2 | 12.2 | 0.00 | 0.00 | 0.00 | 50 | 1007.1 |
| 20260504182042 | 77 | 231 | 7.0 | 13.9 | 0.00 | 0.00 | 0.00 | 51 | 1007.1 |
| 20260504181554 | 77 | 132 | 7.0 | 13.9 | 0.00 | 0.00 | 0.00 | 50 | 1007.1 |
| 20260504181043 | 78 | 162 | 7.0 | 13.0 | 0.00 | 0.00 | 0.00 | 49 | 1007.0 |
| 20260504180544 | 78 | 176 | 5.2 | 13.9 | 0.00 | 0.00 | 0.00 | 51 | 1007.2 |
| 20260504180055 | 78 | 172 | 5.2 | 13.9 | 0.00 | 0.00 | 0.00 | 52 | 1007.1 |
| 20260504175543 | 78 | 252 | 5.2 | 13.9 | 0.00 | 0.00 | 0.00 | 50 | 1007.1 |
| 20260504175043 | 77 | 218 | 5.2 | 12.2 | 0.00 | 0.00 | 0.00 | 52 | 1007.1 |
| 20260504174602 | 77 | 134 | 5.2 | 12.2 | 0.00 | 0.00 | 0.00 | 53 | 1007.2 |
| 20260504174043 | 77 | 195 | 7.0 | 12.2 | 0.00 | 0.00 | 0.00 | 51 | 1007.2 |
| 20260504173543 | 77 | 190 | 6.1 | 12.2 | 0.00 | 0.00 | 0.00 | 50 | 1007.3 |
| 20260504173100 | 77 | 180 | 6.1 | 13.0 | 0.00 | 0.00 | 0.00 | 51 | 1007.3 |
| 20260504172543 | 77 | 204 | 6.1 | 15.6 | 0.00 | 0.00 | 0.00 | 50 | 1007.3 |
| 20260504172042 | 77 | 229 | 6.1 | 15.6 | 0.00 | 0.00 | 0.00 | 50 | 1007.2 |
| 20260504171554 | 77 | 235 | 5.2 | 10.4 | 0.00 | 0.00 | 0.00 | 50 | 1007.2 |
| 20260504171043 | 77 | 179 | 4.3 | 12.2 | 0.00 | 0.00 | 0.00 | 52 | 1007.3 |
| 20260504170542 | 76 | 160 | 5.2 | 14.8 | 0.00 | 0.00 | 0.00 | 53 | 1007.2 |
| 20260504151043 | 71 | 149 | 7.0 | 13.9 | 0.00 | 0.00 | 0.00 | 54 | 1008.4 |
| 20260504150543 | 71 | 220 | 3.5 | 15.6 | 0.00 | 0.00 | 0.00 | 56 | 1008.5 |
| 20260504150103 | 70 | 212 | 5.2 | 15.6 | 0.00 | 0.00 | 0.00 | 53 | 1008.6 |
| 20260504141042 | 68 | 211 | 4.3 | 12.2 | 0.00 | 0.00 | 0.00 | 58 | 1008.9 |
| 20260504140542 | 67 | 196 | 3.5 | 12.2 | 0.00 | 0.00 | 0.00 | 59 | 1009.0 |
| 20260504130551 | 62 | 194 | 3.5 | 7.0 | 0.00 | 0.00 | 0.00 | 65 | 1009.3 |
| 20260504110543 | 58 | 150 | 0.9 | 6.1 | 0.00 | 0.00 | 0.00 | 68 | 1009.8 |
| 20260504100542 | 58 | 164 | 1.7 | 8.7 | 0.00 | 0.00 | 0.00 | 69 | 1009.8 |
| 20260504090104 | 59 | 190 | 0.0 | 7.0 | 0.00 | 0.00 | 0.00 | 67 | 1009.9 |